Tampa Knight Airport, FL

8:26 PM EST on November 19, 2019 (GMT -0500)
Knight

Weather History for KTPF - September, 2019

Change the Weather History Date:

Friday, September 20, 2019

  Actual Average (KTPA) Record (KTPA)
Temperature  
Mean Temperature 80 °F -  
Max Temperature 89 °F 86 °F 96 °F (2018)
Min Temperature 71 °F 73 °F 58 °F (1981)
Cooling Degree Days 15    
Growing Degree Days 30 (Base 50)    
Moisture  
Dew Point 70 °F    
Average Humidity 75    
Maximum Humidity 100    
Minimum Humidity 49    
Precipitation  
Precipitation 0.00 in - - ()
Sea Level Pressure  
Sea Level Pressure 30.08 in    
Wind  
Wind Speed 12 mph (ENE)    
Max Wind Speed 20 mph    
Max Gust Speed 28 mph    
Visibility 10 miles    
Events      
Averages and records for this station are not official NWS values.
T = Trace of Precipitation, MM = Missing Value Source: NWS Daily Summary

Daily Weather History Graph

Daily Weather History Graph

Search for Another Location

Airport or City:

Astronomy

Sep. 20, 2019 Rise Set
Actual Time 7:17 AM EDT 7:28 PM EDT
Civil Twilight 6:53 AM EDT 7:52 PM EDT
Nautical Twilight 6:26 AM EDT 8:19 PM EDT
Astronomical Twilight 5:58 AM EDT 8:47 PM EDT
Moon 11:47 PM EDT 12:52 PM EDT
Length of Visible Light 12h 58m
Length of Day
12h 11m
Waning Gibbous, 65% of the Moon is Illuminated
Sep 20
Waning Gibbous
Sep 21
Last Quarter
Sep 28
New
Oct 5
First Quarter
Oct 13
Full

Hourly Weather History & Observations

Time (EDT) Temp. Heat Index Dew Point Humidity Pressure Visibility Wind Dir Wind Speed Gust Speed Precip Events Conditions
12:15 AM 75.2 °F - 68.0 °F 78% 30.06 in 10.0 mi NE 9.2 mph - N/A   Mostly Cloudy
12:35 AM 73.4 °F - 69.8 °F 88% 30.06 in 10.0 mi NE 8.1 mph - N/A   Mostly Cloudy
12:55 AM 73.4 °F - 69.8 °F 88% 30.05 in 10.0 mi NE 10.4 mph - N/A   Overcast
1:15 AM 73.4 °F - 69.8 °F 88% 30.05 in 10.0 mi NE 6.9 mph - N/A   Overcast
1:35 AM 73.4 °F - 69.8 °F 88% 30.05 in 10.0 mi NE 8.1 mph - N/A   Overcast
1:55 AM 73.4 °F - 71.6 °F 94% 30.05 in 10.0 mi ENE 10.4 mph - N/A   Overcast
2:15 AM 73.4 °F - 71.6 °F 94% 30.04 in 10.0 mi ENE 11.5 mph - N/A   Overcast
2:35 AM 73.4 °F - 71.6 °F 94% 30.04 in 10.0 mi NE 10.4 mph - N/A   Mostly Cloudy
2:55 AM 73.4 °F - 71.6 °F 94% 30.04 in 10.0 mi ENE 10.4 mph - N/A   Mostly Cloudy
3:15 AM 73.4 °F - 71.6 °F 94% 30.03 in 10.0 mi NE 8.1 mph - N/A   Overcast
3:35 AM 71.6 °F - 71.6 °F 100% 30.03 in 10.0 mi NE 11.5 mph - N/A   Mostly Cloudy
3:55 AM 71.6 °F - 71.6 °F 100% 30.02 in 10.0 mi NE 9.2 mph - N/A   Scattered Clouds
4:15 AM 71.6 °F - 71.6 °F 100% 30.01 in 10.0 mi NE 9.2 mph - N/A   Clear
4:35 AM 73.4 °F - 71.6 °F 94% 30.02 in 10.0 mi NE 9.2 mph - N/A   Clear
4:55 AM 71.6 °F - 71.6 °F 100% 30.02 in 10.0 mi NE 9.2 mph - N/A   Scattered Clouds
5:15 AM 71.6 °F - 71.6 °F 100% 30.03 in 10.0 mi NE 10.4 mph - N/A   Mostly Cloudy
5:35 AM 73.4 °F - 71.6 °F 94% 30.04 in 10.0 mi NE 12.7 mph - N/A   Scattered Clouds
5:55 AM 73.4 °F - 71.6 °F 94% 30.04 in 10.0 mi NE 11.5 mph - N/A   Scattered Clouds
6:15 AM 71.6 °F - 71.6 °F 100% 30.05 in 10.0 mi NE 12.7 mph 18.4 mph N/A   Scattered Clouds
6:35 AM 71.6 °F - 71.6 °F 100% 30.05 in 10.0 mi NE 8.1 mph 16.1 mph N/A   Clear
6:55 AM 71.6 °F - 71.6 °F 100% 30.06 in 10.0 mi NE 8.1 mph - N/A   Clear
7:15 AM 71.6 °F - 71.6 °F 100% 30.06 in 10.0 mi NE 9.2 mph 16.1 mph N/A   Scattered Clouds
7:35 AM - - - N/A% 30.06 in 10.0 mi NE 11.5 mph - N/A   Mostly Cloudy
7:55 AM - - - N/A% 30.07 in 10.0 mi ENE 9.2 mph - N/A   Mostly Cloudy
8:15 AM 73.4 °F - 73.4 °F 100% 30.07 in 10.0 mi ENE 8.1 mph - N/A   Overcast
8:35 AM 75.2 °F - 73.4 °F 94% 30.08 in 10.0 mi ENE 10.4 mph 17.3 mph N/A   Overcast
8:55 AM 77.0 °F - 71.6 °F 83% 30.08 in 10.0 mi NE 13.8 mph - N/A   Overcast
9:15 AM 78.8 °F - 71.6 °F 78% 30.09 in 10.0 mi ENE 13.8 mph - N/A   Mostly Cloudy
9:35 AM 78.8 °F - 71.6 °F 78% 30.09 in 10.0 mi ENE 13.8 mph 19.6 mph N/A   Overcast
9:55 AM 78.8 °F - 71.6 °F 78% 30.10 in 10.0 mi East 16.1 mph 21.9 mph N/A   Overcast
10:15 AM 80.6 °F 84.6 °F 71.6 °F 74% 30.11 in 10.0 mi East 10.4 mph 18.4 mph N/A   Overcast
10:35 AM 80.6 °F 84.6 °F 71.6 °F 74% 30.11 in 10.0 mi East 11.5 mph 18.4 mph N/A   Overcast
10:55 AM 82.4 °F 87.2 °F 71.6 °F 70% 30.10 in 10.0 mi East 17.3 mph 23.0 mph N/A   Overcast
11:15 AM 84.2 °F 89.6 °F 71.6 °F 66% 30.11 in 10.0 mi East 15.0 mph 21.9 mph N/A   Overcast
11:35 AM 84.2 °F 88.4 °F 69.8 °F 62% 30.11 in 10.0 mi East 16.1 mph 24.2 mph N/A   Overcast
11:55 AM 82.4 °F 86.3 °F 69.8 °F 66% 30.11 in 10.0 mi East 17.3 mph 25.3 mph N/A   Overcast
12:15 PM 82.4 °F 88.2 °F 73.4 °F 74% 30.11 in 10.0 mi East 12.7 mph - N/A   Overcast
12:35 PM 86.0 °F 91.8 °F 71.6 °F 62% 30.10 in 10.0 mi East 15.0 mph 18.4 mph N/A   Mostly Cloudy
12:55 PM 86.0 °F 90.4 °F 69.8 °F 58% 30.10 in 10.0 mi East 18.4 mph 23.0 mph N/A   Overcast
1:15 PM 86.0 °F 90.4 °F 69.8 °F 58% 30.09 in 10.0 mi ENE 15.0 mph - N/A   Mostly Cloudy
1:35 PM 86.0 °F 91.8 °F 71.6 °F 62% 30.09 in 10.0 mi ENE 13.8 mph 19.6 mph N/A   Overcast
1:55 PM 86.0 °F 90.4 °F 69.8 °F 58% 30.09 in 10.0 mi ENE 15.0 mph 19.6 mph N/A   Overcast
2:15 PM 89.6 °F 94.7 °F 69.8 °F 52% 30.08 in 10.0 mi East 18.4 mph 23.0 mph N/A   Mostly Cloudy
2:35 PM 87.8 °F 91.4 °F 68.0 °F 52% 30.08 in 10.0 mi East 18.4 mph 24.2 mph N/A   Mostly Cloudy
2:55 PM 89.6 °F 93.4 °F 68.0 °F 49% 30.07 in 10.0 mi East 19.6 mph 27.6 mph N/A   Mostly Cloudy
3:15 PM 89.6 °F 94.7 °F 69.8 °F 52% 30.06 in 10.0 mi ENE 18.4 mph 27.6 mph N/A   Mostly Cloudy
3:35 PM 86.0 °F 90.4 °F 69.8 °F 58% 30.06 in 10.0 mi ENE 15.0 mph 24.2 mph N/A   Overcast
3:55 PM 87.8 °F 92.6 °F 69.8 °F 55% 30.06 in 10.0 mi East 15.0 mph 20.7 mph N/A   Overcast
4:15 PM 87.8 °F 93.8 °F 71.6 °F 58% 30.06 in 10.0 mi ENE 18.4 mph 24.2 mph N/A   Overcast
4:35 PM 86.0 °F 90.4 °F 69.8 °F 58% 30.06 in 10.0 mi ENE 19.6 mph 23.0 mph N/A   Overcast
4:55 PM 84.2 °F 88.4 °F 69.8 °F 62% 30.06 in 10.0 mi ENE 17.3 mph 23.0 mph N/A   Overcast
5:15 PM 84.2 °F 88.4 °F 69.8 °F 62% 30.06 in 10.0 mi ENE 17.3 mph 23.0 mph N/A   Overcast
5:35 PM 84.2 °F 88.4 °F 69.8 °F 62% 30.06 in 10.0 mi East 17.3 mph 24.2 mph N/A   Overcast
5:55 PM 86.0 °F 90.4 °F 69.8 °F 58% 30.07 in 10.0 mi ENE 16.1 mph 20.7 mph N/A   Mostly Cloudy
6:15 PM 86.0 °F 89.4 °F 68.0 °F 55% 30.07 in 10.0 mi East 16.1 mph 21.9 mph N/A   Overcast
6:35 PM 84.2 °F 87.3 °F 68.0 °F 58% 30.07 in 10.0 mi ENE 19.6 mph 26.5 mph N/A   Overcast
6:55 PM 82.4 °F 85.4 °F 68.0 °F 62% 30.08 in 10.0 mi East 10.4 mph - N/A   Overcast
7:15 PM 82.4 °F 85.4 °F 68.0 °F 62% 30.08 in 10.0 mi East 17.3 mph 21.9 mph N/A   Overcast
7:35 PM 82.4 °F 85.4 °F 68.0 °F 62% 30.09 in 10.0 mi East 13.8 mph 19.6 mph N/A   Overcast
7:55 PM 80.6 °F 82.7 °F 66.2 °F 61% 30.09 in 10.0 mi East 13.8 mph 19.6 mph N/A   Mostly Cloudy
8:15 PM 80.6 °F 82.7 °F 66.2 °F 61% 30.10 in 10.0 mi East 12.7 mph - N/A   Mostly Cloudy
9:15 PM 78.8 °F - 68.0 °F 69% 30.11 in 10.0 mi East 11.5 mph - N/A   Overcast
9:35 PM 78.8 °F - 66.2 °F 65% 30.12 in 10.0 mi East 13.8 mph 18.4 mph N/A   Overcast
9:55 PM 78.8 °F - 66.2 °F 65% 30.12 in 10.0 mi ENE 9.2 mph - N/A   Overcast
10:15 PM 78.8 °F - 66.2 °F 65% 30.13 in 10.0 mi East 11.5 mph 17.3 mph N/A   Overcast
10:35 PM 78.8 °F - 66.2 °F 65% 30.13 in 10.0 mi ENE 11.5 mph - N/A   Overcast
10:55 PM 77.0 °F - 68.0 °F 74% 30.13 in 10.0 mi East 12.7 mph - N/A   Overcast
11:15 PM 77.0 °F - 68.0 °F 74% 30.13 in 10.0 mi ENE 10.4 mph - N/A   Overcast
11:35 PM 77.0 °F - 68.0 °F 74% 30.14 in 10.0 mi ENE 10.4 mph - N/A   Overcast
11:55 PM 77.0 °F - 68.0 °F 74% 30.14 in 10.0 mi ENE 9.2 mph - N/A   Overcast